Weather History for KINK - February, 2014

Change the Weather History Date:

Tuesday, February 25, 2014

  Actual Average Record
Temperature  
Mean Temperature 50 °F -  
Max Temperature 57 °F 68 °F 87 °F (2008)
Min Temperature 44 °F 35 °F 11 °F (1960)
Degree Days  
Heating Degree Days 14    
Moisture  
Dew Point 40 °F    
Average Humidity 71    
Maximum Humidity 93    
Minimum Humidity 47    
Precipitation  
Precipitation 0.00 in - - ()
Sea Level Pressure  
Sea Level Pressure 29.97 in    
Wind  
Wind Speed 7 mph (NE)    
Max Wind Speed 20 mph    
Max Gust Speed 25 mph    
Visibility 10 miles    
Events      
Averages and records for this station are not official NWS values.
T = Trace of Precipitation, MM = Missing Value Source: NWS Daily Summary

Daily Weather History Graph

Daily Weather History Graph

Search for Another Location

Airport or City:

Trip Planner

Search our weather history database for the weather conditions in past years. The results will help you decide how hot, cold, wet, or windy it might be!

Date:

Astronomy

Feb. 25, 2014 Rise Set
Actual Time 7:24 AM CST 6:47 PM CST
Civil Twilight 6:59 AM CST 7:12 PM CST
Nautical Twilight 6:31 AM CST 7:40 PM CST
Astronomical Twilight 6:03 AM CST 8:08 PM CST
Moon 4:11 AM CST (2/25) 3:05 PM CST (2/25)
Length of Visible Light 12h 12m
Length of Day
11h 23m
Waning Crescent, 18% of the Moon is Illuminated
Feb 25
Waning Crescent
Mar 1
New
Mar 8
First Quarter
Mar 16
Full
Mar 23
Last Quarter

Hourly Weather History & Observations

Time (CST) Temp. Windchill Dew Point Humidity Pressure Visibility Wind Dir Wind Speed Gust Speed Precip Events Conditions
12:53 AM 53.1 °F - 33.1 °F 47% 29.90 in 10.0 mi East 4.6 mph - N/A   Clear
1:53 AM 50.0 °F - 34.0 °F 54% 29.90 in 10.0 mi NE 5.8 mph - N/A   Clear
2:53 AM 48.9 °F - 35.1 °F 59% 29.88 in 10.0 mi NE 4.6 mph - N/A   Clear
3:53 AM 46.9 °F - 35.1 °F 63% 29.88 in 10.0 mi NNE 3.5 mph - N/A   Clear
4:53 AM 46.9 °F - 37.0 °F 68% 29.87 in 10.0 mi NNE 3.5 mph - N/A   Clear
5:53 AM 46.9 °F - 37.0 °F 68% 29.88 in 10.0 mi NE 4.6 mph - N/A   Clear
6:26 AM 46.9 °F - 39.0 °F 74% 29.96 in 10.0 mi Calm Calm - N/A   Partly Cloudy
6:42 AM 46.9 °F - 37.0 °F 68% 29.97 in 10.0 mi NNW 3.5 mph - N/A   Mostly Cloudy
6:53 AM 48.0 °F - 37.0 °F 66% 29.90 in 10.0 mi North 5.8 mph - N/A   Overcast
7:53 AM 50.0 °F - 48.0 °F 93% 29.93 in 10.0 mi North 3.5 mph - N/A   Overcast
8:35 AM 57.9 °F - 51.1 °F 78% 30.04 in 10.0 mi NE 17.3 mph - N/A   Overcast
8:53 AM 57.0 °F - 48.9 °F 74% 29.98 in 10.0 mi NNE 18.4 mph 23.0 mph N/A   Mostly Cloudy
9:53 AM 51.1 °F - 39.0 °F 63% 30.02 in 10.0 mi NNE 19.6 mph 25.3 mph N/A   Mostly Cloudy
10:53 AM 51.1 °F - 39.0 °F 63% 30.05 in 10.0 mi NNE 17.3 mph - N/A   Overcast
11:53 AM 53.1 °F - 39.9 °F 61% 30.05 in 10.0 mi North 18.4 mph 24.2 mph N/A   Overcast
12:53 PM 53.1 °F - 41.0 °F 64% 30.05 in 10.0 mi NNE 13.8 mph - N/A   Overcast
1:53 PM 50.0 °F - 39.9 °F 68% 30.02 in 10.0 mi NE 11.5 mph - N/A   Overcast
2:53 PM 50.0 °F - 39.9 °F 68% 29.99 in 10.0 mi NE 8.1 mph - N/A   Overcast
3:53 PM 52.0 °F - 39.9 °F 63% 29.96 in 10.0 mi NE 9.2 mph - N/A   Overcast
4:53 PM 51.1 °F - 41.0 °F 68% 29.96 in 10.0 mi NE 4.6 mph - N/A   Overcast
5:53 PM 51.1 °F - 41.0 °F 68% 29.95 in 10.0 mi East 6.9 mph - N/A   Overcast
6:53 PM 50.0 °F - 41.0 °F 71% 29.96 in 10.0 mi East 5.8 mph - N/A   Partly Cloudy
7:53 PM 48.9 °F - 41.0 °F 74% 29.97 in 10.0 mi East 8.1 mph - N/A   Clear
8:53 PM 48.0 °F - 41.0 °F 77% 29.98 in 10.0 mi East 6.9 mph - N/A   Clear
9:53 PM 46.0 °F 41.4 °F 41.0 °F 83% 30.00 in 10.0 mi East 9.2 mph - N/A   Clear
10:53 PM 46.0 °F 41.9 °F 41.0 °F 83% 30.00 in 10.0 mi East 8.1 mph - N/A   Clear
11:28 PM 45.0 °F 39.3 °F 41.0 °F 86% 30.04 in 10.0 mi East 11.5 mph - N/A   Scattered Clouds
11:50 PM 44.6 °F 38.8 °F 41.0 °F 87% 30.04 in 10.0 mi East 11.5 mph - N/A   Overcast
11:53 PM 45.0 °F 39.7 °F 41.0 °F 86% 30.01 in 10.0 mi East 10.4 mph - N/A   Overcast